Simultaneous Nadir Overpasses (SNOs) Predictions

Prediction of SNOs between NOAA-19 and TERRA Satellite Orbit:

Table of predicted SNOs for the next 14.0 days since TLE Epoch: 11/9/2012
Index Date (NOAA-19) Time (NOAA-19) NOAA-19 Lat,Lon Date (TERRA) Time (TERRA) TERRA Lat,Lon Distance(km) Time Diff (sec)
1 11/11/2012 02:49:27 69.12, 137.12 11/11/2012 02:49:54 69.12, 137.08 1.83 27
2 11/11/2012 03:40:31 -68.99, -55.47 11/11/2012 03:39:24 -69.00, -55.44 1.96 67
3 11/13/2012 06:43:21 -70.17,-102.83 11/13/2012 06:44:28 -70.06,-100.36 94.09 67
4 11/13/2012 07:34:00 69.14, 65.97 11/13/2012 07:34:10 69.12, 66.02 2.74 10
5 11/13/2012 08:24:57 -68.64,-126.12 11/13/2012 08:23:45 -68.74,-126.84 30.74 72
6 11/15/2012 11:27:43 -69.62,-173.12 11/15/2012 11:28:54 -69.50,-172.19 38.68 71
7 11/15/2012 12:18:31 69.11, -5.12 11/15/2012 12:18:25 69.12, -5.05 2.97 6
8 11/15/2012 13:09:18 -68.09, 163.48 11/15/2012 13:08:10 -68.18, 161.41 85.97 68
9 11/17/2012 16:12:06 -69.19, 116.38 11/17/2012 16:13:14 -69.21, 116.36 2.40 68
10 11/17/2012 17:03:02 69.03, -76.14 11/17/2012 17:02:42 69.05, -76.21 3.18 20
11 11/19/2012 20:56:38 -69.19, 45.25 11/19/2012 20:57:30 -69.19, 45.27 0.86 52
12 11/19/2012 21:47:34 69.01,-147.24 11/19/2012 21:46:58 69.02,-147.31 2.66 36
13 11/22/2012 01:41:09 -69.15, -25.81 11/22/2012 01:41:46 -69.15, -25.85 1.55 37
14 11/22/2012 02:32:06 69.00, 141.65 11/22/2012 02:31:13 69.03, 141.65 2.88 53
